Location: Unspecified
(0.0000°N, 0.0000°E)
Time: 19:34:34
(UTC+00:00)

Vanguard 2 - Pass Details

Date: 09 December 2017
Orbit: 553 x 2939 km, 32.9° (Epoch: 21 July)

Event Time Altitude Azimuth Distance (km) Brightness Sun altitude
Rises 11:19:18 0° 227° (SW) 6,642 12.4 65.8°
Reaches altitude 10° 11:24:18 10° 222° (SW) 5,424 12.2 66.1°
Maximum altitude 11:38:55 51° 151° (SSE) 2,385 11.8 66.9°
Drops below altitude 10° 11:48:05 10° 77° (ENE) 3,513 11.0 67.1°
Sets 11:50:36 0° 72° (ENE) 4,216 11.2 67.1°
